Theta_e
340 340 340 340 339 338 338 337 337 338 338 338 338 338 338 338 338 337 336 336 336 337 336 334 334 334 334 334 335 338 338 338 335 331 329 327 326 326 326 326 328 328 329 330 329 329 328 328 329 329 329 328 328 326 325 323 321 320 320 321 323 323 323 323 324 323 323 323 322 321 320 319 318 319 321 323 324 325 326 327 327 327 327 328 330
340 340 339 339 339 338 338 338 337 337 338 338 338 338 338 338 338 337 336 335 335 336 335 334 334 334 334 334 336 338 338 337 335 331 328 326 325 324 323 323 323 323 323 324 324 324 323 322 322 324 325 326 325 324 322 318 315 313 313 316 317 317 318 319 319 319 319 318 317 316 314 311 310 310 315 320 322 323 324 324 325 326 326 326 327
340 339 339 339 339 338 337 338 337 337 337 337 337 337 336 337 337 336 336 335 334 335 335 333 332 333 333 333 334 337 338 336 334 331 328 325 324 322 321 321 320 320 319 318 316 315 315 313 311 314 319 322 321 318 316 312 308 305 302 303 305 306 306 306 308 308 310 311 309 306 303 301 301 301 302 309 316 321 322 322 323 324 325 325 325
339 339 339 339 339 338 337 337 337 337 337 337 337 337 336 336 336 336 336 336 334 335 335 333 331 331 331 331 331 333 335 335 334 331 328 325 323 322 321 320 319 318 317 315 311 306 305 305 303 303 308 315 316 313 313 311 307 304 301 298 298 300 301 300 302 303 304 307 305 301 299 299 299 298 296 298 304 313 317 318 320 321 321 322 323
340 340 339 338 337 338 337 337 337 337 336 337 337 337 336 336 336 336 335 334 334 334 334 332 331 330 329 329 329 329 331 332 333 331 329 326 323 321 320 318 316 315 314 313 309 303 302 304 304 301 299 303 310 313 313 313 310 308 308 306 303 304 306 306 307 308 308 309 308 305 301 300 301 301 300 299 298 302 307 308 311 315 317 318 320
340 339 339 338 337 337 337 337 338 337 336 337 337 336 335 335 335 335 334 334 334 334 333 330 330 330 328 327 327 327 327 328 329 329 326 322 319 318 317 315 313 312 311 310 308 304 303 306 307 306 302 298 304 310 313 313 311 309 310 311 310 308 309 310 311 312 311 311 311 310 306 306 308 308 307 306 305 304 304 301 301 304 308 311 313
338 338 338 338 337 337 337 337 338 337 336 337 337 335 335 334 334 334 335 335 334 333 332 329 329 328 326 326 325 324 324 323 323 323 321 318 316 314 313 312 311 310 309 307 306 305 305 308 307 307 306 302 300 304 309 312 311 309 307 309 312 310 309 312 313 313 313 312 313 312 310 310 310 311 311 310 310 310 308 306 305 303 304 305 305
337 338 337 337 337 337 337 337 337 337 336 336 336 335 335 335 334 335 336 336 334 331 330 329 328 326 324 324 323 322 321 320 318 317 317 316 314 312 311 311 310 309 307 305 305 306 306 307 308 307 307 305 303 300 303 307 309 309 305 304 309 310 309 310 312 312 312 312 312 312 311 311 310 311 311 311 311 310 309 310 310 309 309 308 307
337 337 337 337 337 337 337 337 336 336 336 335 335 335 335 335 335 335 335 335 333 330 329 328 327 325 323 322 321 320 319 318 317 315 314 314 312 310 310 309 309 308 306 304 304 305 306 306 306 307 307 306 305 302 299 301 304 307 306 303 304 308 307 308 310 311 311 312 312 312 311 310 310 310 311 311 310 310 310 310 310 310 310 311 310
338 337 337 337 338 337 337 337 336 336 335 334 334 333 334 335 335 334 334 334 332 329 327 326 325 323 322 320 319 318 317 317 316 315 313 312 310 309 309 308 308 308 306 303 303 303 305 306 306 306 306 306 306 305 301 300 301 302 305 304 302 305 305 305 307 309 310 311 311 310 310 308 307 308 310 311 310 310 310 310 310 310 310 310 310
338 337 337 338 337 337 336 336 336 335 335 335 334 333 332 333 334 333 332 332 332 329 326 325 324 323 321 318 317 316 315 315 314 313 312 311 310 310 309 308 307 307 306 305 304 304 303 302 304 305 306 306 306 306 305 305 302 300 301 302 302 303 303 302 304 306 307 309 309 309 309 307 305 306 309 310 309 309 309 309 310 310 309 309 309
337 337 337 337 337 336 335 335 335 335 335 334 334 333 333 333 333 332 331 331 331 328 326 326 324 321 320 318 316 315 313 312 311 311 311 310 310 310 309 309 308 307 306 306 305 305 302 298 300 303 305 307 307 306 307 306 305 302 301 301 301 302 303 302 303 304 305 308 309 309 309 307 306 308 309 309 309 309 308 308 309 309 309 309 309
336 336 336 336 335 335 334 333 333 333 333 333 333 333 332 332 331 331 331 330 328 326 326 326 323 320 319 318 316 314 313 311 310 310 309 309 308 308 308 307 307 307 306 306 305 305 303 299 299 299 301 304 304 304 306 306 305 305 303 301 299 302 304 304 304 304 305 308 309 309 308 307 308 308 309 309 308 308 308 308 308 309 309 308 308
336 335 335 334 334 334 333 332 332 331 331 331 330 330 330 330 330 329 330 330 327 325 325 325 324 321 318 317 316 314 312 310 310 309 309 308 308 307 307 307 307 307 306 306 305 305 304 304 303 301 300 300 300 301 304 304 305 306 305 302 300 301 304 304 304 305 305 307 308 307 307 307 307 308 307 307 307 308 308 308 308 309 308 308 308
335 334 333 333 333 333 332 331 331 330 329 329 329 329 328 330 329 328 330 330 328 325 326 327 325 321 319 320 319 317 315 311 309 308 308 308 309 309 308 306 306 306 306 306 305 305 306 306 306 304 302 302 301 301 302 302 304 305 304 303 301 301 303 303 303 304 305 306 307 307 307 307 307 307 306 306 306 307 307 307 308 308 308 308 308
334 333 333 333 332 331 330 329 329 329 328 329 329 329 328 329 329 328 327 329 328 327 328 329 326 322 323 324 321 321 323 316 308 307 307 306 307 308 308 306 305 305 305 304 304 305 305 306 306 304 304 304 302 302 302 302 302 303 303 302 301 300 301 301 302 303 304 306 306 306 306 306 306 306 306 306 306 307 307 306 307 307 307 308 307
333 333 332 332 331 330 329 328 328 327 327 328 328 328 328 328 328 327 325 326 327 326 327 328 327 324 325 327 324 326 327 316 310 309 307 306 305 305 307 306 305 305 304 303 304 303 302 304 305 304 304 304 302 302 303 303 302 303 302 301 301 300 301 300 299 302 304 304 305 305 305 305 305 305 305 305 306 306 306 306 306 306 307 307 307
331 331 330 330 330 329 328 328 327 326 326 326 327 326 327 327 327 326 325 324 325 325 324 324 324 323 323 324 325 326 320 312 315 315 309 307 306 305 304 303 304 305 304 304 304 303 301 302 304 304 304 304 302 302 303 303 302 302 302 301 301 301 300 299 299 300 303 303 304 304 304 305 305 305 305 305 305 305 305 305 305 305 306 306 307
330 329 329 328 328 327 327 325 325 325 325 326 326 325 325 325 325 324 322 321 320 319 319 320 321 319 317 316 318 321 317 312 317 316 311 310 307 306 304 302 305 305 305 305 304 302 301 301 303 303 303 303 302 302 302 302 302 302 301 300 301 301 300 299 299 300 301 302 303 304 304 304 304 304 305 305 305 305 305 305 305 305 305 306 306
329 328 327 327 325 325 324 323 322 324 325 325 325 324 323 322 322 322 320 318 315 312 313 315 316 314 312 312 313 316 315 313 315 315 316 316 311 308 305 304 305 303 303 305 303 302 301 301 302 303 303 302 302 303 302 302 301 301 300 300 301 300 300 300 300 300 300 301 302 303 304 304 304 304 305 305 304 304 304 304 304 304 305 305 304
328 327 326 325 324 323 322 321 321 323 324 323 323 322 322 321 321 321 318 315 313 311 312 313 312 312 311 311 311 313 311 311 313 312 315 319 316 311 307 306 306 304 302 304 303 302 302 302 303 303 303 303 302 302 301 301 301 300 300 300 300 300 300 300 300 300 300 300 301 302 303 303 303 304 305 305 304 304 304 304 304 304 304 304 303
326 325 324 324 323 321 320 320 320 321 322 322 321 320 320 320 320 320 317 315 313 313 313 313 313 313 312 311 312 312 311 310 311 311 311 314 316 312 308 307 309 308 307 307 305 304 303 303 303 304 304 303 302 301 301 300 300 301 300 300 300 301 301 301 300 300 300 301 301 301 301 301 303 305 305 304 304 304 304 304 303 303 303 303 303
325 324 324 323 321 320 319 318 318 319 319 319 318 317 316 316 317 317 316 315 314 313 313 313 312 312 312 312 311 310 310 310 309 310 309 310 314 313 309 308 309 309 310 310 306 305 305 304 303 304 304 303 302 301 301 301 301 301 300 300 301 301 301 301 300 301 301 301 301 301 301 301 302 305 305 304 304 303 303 303 303 303 302 302 302
325 324 322 321 319 319 318 317 315 315 314 313 313 312 312 313 314 314 314 313 313 312 312 311 311 311 310 310 310 309 309 309 308 308 308 308 311 310 307 308 310 309 310 310 307 305 305 305 304 304 303 302 301 301 301 301 301 301 301 301 301 301 301 301 301 301 301 301 300 300 300 300 301 303 303 302 302 302 302 302 302 301 301 301 302
324 323 322 321 318 317 317 316 314 312 311 310 311 311 311 312 312 312 312 311 311 310 309 309 309 309 309 308 308 308 307 307 307 307 307 306 307 306 306 307 309 310 310 309 307 305 304 304 303 303 302 301 302 302 302 301 302 301 301 301 301 301 301 301 301 300 300 300 300 300 300 300 300 300 301 301 301 301 301 301 301 301 301 301 301
324 322 321 320 319 317 316 315 313 311 310 310 311 311 311 311 312 311 311 310 309 309 308 308 308 307 307 307 307 307 306 306 306 305 305 305 305 305 307 308 308 307 307 308 307 304 303 303 302 302 302 302 302 302 302 302 302 302 301 301 301 301 301 300 300 300 299 299 300 300 299 299 300 300 300 300 300 300 300 300 301 300 301 301 300
324 323 321 320 318 317 316 315 312 310 310 310 310 310 310 310 310 310 310 309 308 308 308 307 307 306 306 305 305 305 305 305 305 305 304 305 305 304 306 312 314 309 306 307 306 304 304 303 302 302 302 302 302 302 303 302 302 302 301 301 301 301 300 300 299 299 299 299 299 299 299 299 300 300 300 300 300 300 299 299 299 299 299 299 299
323 323 321 319 318 317 315 314 311 310 309 309 309 309 308 308 308 308 308 307 307 307 307 306 305 305 304 304 305 305 304 304 304 304 304 304 305 304 303 307 313 313 311 311 308 304 305 304 302 302 302 301 302 302 302 302 301 301 301 301 301 300 300 299 298 299 299 299 298 298 299 299 300 300 300 300 300 300 299 299 298 298 298 298 298
323 322 320 319 317 316 314 312 310 309 309 309 308 308 306 306 306 306 306 306 305 305 305 305 305 304 303 303 303 303 303 303 304 304 304 304 304 304 303 302 306 310 311 314 311 305 304 303 302 303 302 301 302 302 302 302 301 301 301 301 300 300 298 297 298 298 298 298 298 298 299 299 300 300 300 300 300 300 299 299 299 298 298 297 297
323 321 319 318 316 316 313 311 309 309 309 308 307 306 305 306 306 306 306 304 304 304 304 305 305 304 303 301 301 302 303 303 304 304 304 304 303 303 305 304 303 304 305 309 310 305 303 302 302 302 302 301 301 301 302 301 300 301 300 300 300 299 297 297 298 298 297 297 298 298 299 299 300 300 300 301 300 300 299 299 299 298 298 297 297
322 320 319 317 316 314 312 310 309 309 308 307 306 306 305 306 306 306 306 304 303 304 304 304 304 303 302 303 303 303 303 303 303 304 303 303 303 303 304 304 304 303 302 303 305 304 302 302 301 301 301 300 301 301 301 300 300 300 300 300 300 297 296 297 298 296 296 297 298 298 299 299 300 300 301 301 301 300 299 299 299 298 297 297 296
321 319 318 317 315 313 311 309 309 309 308 307 307 306 305 305 305 305 305 304 303 303 304 304 305 305 305 305 305 305 304 304 304 304 304 304 304 303 304 304 303 303 302 302 303 302 302 302 301 300 300 300 300 300 300 300 300 300 300 300 298 296 296 297 297 296 296 297 298 298 299 299 300 300 301 301 301 300 299 299 298 298 297 296 295
320 319 318 316 314 313 310 309 309 308 308 307 307 306 305 306 306 305 304 303 303 304 305 305 306 306 306 305 305 304 304 304 304 304 304 304 304 303 303 303 303 303 303 302 302 302 301 301 301 300 299 299 299 299 300 300 299 300 299 298 296 296 297 297 296 296 297 297 297 298 299 299 300 300 301 301 301 300 299 299 298 297 297 296 295
320 318 317 316 314 313 310 309 308 308 308 307 306 306 305 306 306 305 304 303 304 305 305 305 305 304 305 304 304 304 304 304 303 303 304 305 304 303 303 302 302 302 302 301 301 301 301 300 300 299 299 299 299 299 299 299 299 299 298 296 296 296 296 296 296 296 297 297 297 298 299 299 299 300 301 301 301 300 300 299 298 297 296 295 294
318 318 317 316 314 312 311 309 308 308 308 307 306 307 306 306 306 306 305 303 304 305 305 304 304 304 304 303 304 305 305 304 303 302 303 304 304 304 303 302 301 301 300 300 300 300 300 300 299 299 298 298 298 298 298 299 299 298 296 296 296 296 296 296 296 296 296 296 297 298 298 299 299 300 300 301 301 300 300 299 298 297 296 295 294
318 317 316 315 314 312 310 309 308 308 307 307 307 308 306 306 307 306 305 304 304 305 304 304 304 304 304 304 305 305 305 304 303 302 302 303 303 303 302 301 300 300 299 298 298 299 299 299 298 297 297 297 297 298 298 298 298 296 296 296 296 296 296 296 296 296 296 296 297 297 298 299 299 299 300 300 300 300 300 299 298 297 297 296 295
318 317 316 315 313 312 311 309 308 308 307 307 308 307 306 306 307 306 305 305 305 304 304 304 304 304 304 305 305 305 304 303 303 302 301 302 302 301 301 300 299 298 297 297 298 298 297 297 297 296 295 296 296 297 298 298 297 296 296 297 297 297 297 297 297 297 296 296 297 297 298 298 299 299 299 300 300 300 300 299 298 297 297 296 296
318 316 316 314 313 312 311 309 309 308 307 308 308 307 306 306 307 306 306 305 304 304 304 304 304 304 304 305 305 305 305 303 303 302 300 300 301 301 300 299 296 295 295 296 296 297 297 296 296 296 296 296 296 297 298 298 297 297 297 297 297 297 297 297 297 297 297 297 297 298 298 298 299 299 299 300 300 300 299 298 298 297 297 297 296
317 316 315 314 312 311 310 309 309 308 307 308 308 306 306 307 306 306 306 305 305 304 304 304 305 304 305 305 304 304 304 303 302 301 298 298 300 300 297 295 294 295 296 297 297 298 298 298 298 298 297 297 297 297 298 297 297 298 298 297 298 298 298 297 297 297 297 297 297 297 298 298 298 299 299 300 300 300 299 298 298 297 297 297 296
316 316 315 313 312 311 310 309 309 308 307 308 307 306 307 307 306 306 306 306 305 304 304 305 304 304 305 304 304 303 303 302 301 297 294 295 296 296 295 295 297 299 299 299 299 299 299 299 299 298 298 297 297 297 298 298 298 298 298 298 298 298 298 298 297 297 297 297 297 298 298 298 298 298 299 299 300 299 299 298 298 297 297 296 296
316 315 314 313 312 311 310 309 309 308 308 307 307 307 307 306 306 306 306 306 305 304 304 304 304 304 304 304 304 302 300 298 297 294 291 293 294 294 296 298 300 300 300 300 300 300 299 299 299 299 298 298 297 297 298 298 298 298 298 298 298 299 299 298 297 297 297 297 297 297 297 298 298 298 298 299 299 299 299 298 298 297 297 296 296
315 315 314 312 311 310 310 309 309 308 307 307 307 306 305 305 306 306 306 305 305 304 305 304 304 304 304 304 303 299 295 293 293 294 295 296 297 297 298 300 300 300 300 300 301 301 299 298 299 299 298 298 297 297 298 298 298 298 298 299 299 299 298 298 297 297 297 297 297 297 297 297 297 297 298 299 299 299 298 298 298 297 297 296 296
315 314 313 312 311 310 310 309 309 308 307 307 305 304 305 306 306 306 305 305 305 305 305 304 304 304 304 304 303 300 298 295 293 295 299 299 299 299 299 300 301 301 301 301 301 301 300 299 299 299 298 297 298 298 298 298 299 298 298 299 299 299 298 297 297 297 297 297 297 297 297 297 297 298 298 299 299 298 298 298 298 297 297 296 296
315 314 313 312 311 310 309 309 308 307 307 305 303 304 306 306 306 306 306 305 305 305 305 304 304 304 304 304 304 303 303 299 295 297 300 300 299 298 297 300 302 302 302 302 302 302 302 301 300 299 298 297 297 298 299 299 298 298 298 299 299 298 298 297 297 297 297 297 297 297 297 297 297 298 298 298 298 298 299 298 297 297 296 296 296
314 313 312 312 311 310 309 309 308 307 306 304 303 305 306 305 306 306 306 306 306 305 305 305 304 304 304 305 304 304 303 301 299 300 300 299 298 296 296 300 303 302 302 302 302 303 302 301 300 299 298 298 297 299 299 299 298 298 298 299 298 298 298 297 297 297 297 297 297 296 296 297 297 298 298 298 298 298 299 298 297 297 296 296 295
313 312 312 311 311 310 309 308 308 307 306 304 304 306 305 305 306 306 306 306 306 305 305 306 305 305 305 305 305 304 303 302 302 302 301 301 298 295 297 302 302 301 302 302 302 301 300 299 298 298 298 298 298 299 300 300 299 299 299 299 298 298 298 298 298 297 297 297 297 296 296 296 297 297 298 297 298 298 298 297 297 297 296 296 295
313 312 311 311 310 309 309 308 308 307 306 305 306 305 305 306 306 306 306 306 306 306 306 306 306 306 305 305 305 304 303 303 303 303 302 303 299 295 299 303 301 301 302 302 301 299 297 297 298 298 299 299 299 300 300 300 300 299 299 299 299 298 298 298 298 297 297 297 297 296 296 296 297 297 297 297 298 298 298 297 296 296 296 296 295
312 311 311 310 310 309 308 308 307 306 306 306 306 305 305 306 306 306 307 306 306 306 306 306 306 306 305 305 305 305 304 303 303 303 303 303 299 295 298 301 300 301 302 301 300 298 297 298 299 299 300 300 300 300 300 300 300 299 300 300 299 299 298 297 297 297 297 297 297 296 296 296 296 296 296 297 298 298 297 297 296 296 296 296 295
311 310 310 309 309 309 308 307 306 306 306 306 306 305 305 306 306 306 307 306 305 306 306 306 306 306 306 305 305 304 303 303 303 302 302 303 299 295 295 297 299 301 302 300 299 298 298 299 300 300 300 300 300 300 300 300 300 299 300 300 300 299 298 297 297 297 297 297 297 296 296 296 296 296 296 297 298 298 297 296 296 296 296 295 295
310 310 310 309 309 308 307 307 307 307 307 307 306 306 305 305 305 306 306 306 305 306 306 306 306 306 305 305 305 305 303 302 303 302 302 303 299 295 293 295 297 299 299 298 298 299 300 300 300 300 300 300 300 300 300 300 299 300 300 300 299 299 298 297 297 297 297 297 297 296 296 296 296 296 296 297 297 297 297 296 296 296 296 295 295
310 309 309 308 308 308 308 308 308 307 307 307 307 307 306 306 305 305 306 306 305 306 306 306 306 305 305 305 305 304 302 302 303 302 303 302 298 294 293 294 295 296 296 296 298 299 299 300 300 301 300 300 300 300 300 300 300 300 300 300 299 299 299 298 298 297 297 297 297 297 296 296 296 296 296 297 297 297 297 296 296 296 295 295 295
Wind_Speed
10 10 9 10 10 10 10 10 9 9 10 10 8 7 5 4 3 3 4 5 3 1 1 3 4 2 3 4 11 16 12 9 8 8 9 10 12 12 10 10 9 7 6 6 6 7 7 7 7 8 9 10 10 10 10 10 10 10 10 9 8 8 8 8 9 11 12 12 13 14 15 16 16 14 13 12 12 13 14 14 17 17 15 14 12
10 9 9 9 10 10 11 11 10 10 10 10 8 7 5 4 2 1 2 4 2 0 1 2 4 3 2 4 11 17 14 11 10 9 10 12 12 13 12 11 11 10 9 8 9 9 9 9 8 7 7 8 8 9 10 11 11 11 11 10 10 10 10 10 11 12 13 14 14 15 16 17 16 14 12 12 12 13 13 13 14 16 16 15 14
10 9 9 9 8 9 11 10 10 9 9 9 7 6 5 4 3 3 2 1 3 1 4 6 9 9 10 11 12 16 15 12 10 9 11 12 12 13 12 11 11 11 11 10 10 10 10 10 10 9 9 9 9 10 12 13 13 13 13 12 12 12 12 12 12 12 13 14 15 15 16 16 16 15 13 12 11 12 13 13 12 14 14 15 14
9 9 9 8 7 9 10 9 9 9 8 8 7 6 6 6 6 5 4 2 5 1 7 10 14 17 17 18 16 15 14 11 9 9 11 12 12 12 11 10 10 10 11 11 12 11 10 11 12 11 10 10 10 12 13 14 14 15 15 15 14 14 14 14 14 14 14 14 15 16 17 17 17 17 16 14 12 11 12 12 12 13 13 13 13
8 8 8 8 7 8 9 10 9 9 8 8 6 5 6 8 8 6 5 4 4 2 8 11 13 16 15 15 15 17 16 13 11 9 10 11 11 10 9 9 8 9 9 10 11 11 11 13 15 15 13 11 12 13 14 14 15 15 16 16 16 16 16 16 17 17 17 17 17 18 19 19 19 19 19 18 16 13 12 13 14 14 14 15 15
9 10 10 9 9 10 10 10 10 8 7 5 5 5 6 7 8 7 7 5 5 4 10 13 14 13 14 14 14 15 17 17 15 12 11 11 10 9 8 8 8 9 9 10 11 11 12 14 16 17 17 15 13 13 14 14 15 16 16 16 17 18 17 17 17 17 17 17 17 17 19 19 18 19 19 19 19 17 16 16 16 16 15 15 16
9 11 10 9 10 10 10 11 9 8 7 5 4 4 4 6 7 9 7 2 5 8 11 14 14 13 12 13 13 14 16 17 17 15 12 10 10 9 9 7 7 7 8 8 9 11 12 13 15 16 17 17 15 14 14 15 16 17 17 17 17 18 18 17 16 16 16 16 16 17 18 18 17 18 18 18 19 19 19 18 18 18 17 17 17
10 11 10 11 12 11 10 10 9 8 7 5 4 2 2 4 6 7 4 1 8 13 13 13 14 13 13 12 12 11 12 13 13 12 10 8 8 8 8 7 6 6 8 8 8 10 12 13 14 15 16 17 17 16 15 15 16 16 18 17 17 17 17 17 16 16 16 16 16 17 17 17 17 17 18 18 18 18 18 18 18 19 19 19 19
11 11 11 12 13 12 11 10 9 9 8 6 4 2 2 4 5 6 6 2 10 15 15 15 15 14 13 12 11 10 10 10 9 9 7 6 6 6 7 6 6 6 7 8 8 9 11 12 12 13 14 16 16 16 16 17 16 15 17 18 18 17 18 17 17 17 17 17 17 17 17 18 18 17 18 18 18 18 18 18 18 19 19 19 20
13 13 13 13 13 13 12 10 10 9 8 6 5 4 4 5 7 8 6 3 10 16 16 17 16 15 13 12 11 10 9 7 6 6 6 6 6 6 6 6 5 5 7 9 9 9 9 11 11 11 12 13 15 14 15 17 17 15 15 17 19 18 19 19 18 18 17 17 17 18 19 19 19 19 19 19 19 19 19 19 18 19 19 19 20
14 14 14 15 14 14 12 10 9 8 7 7 7 7 6 7 7 7 5 4 10 17 18 17 16 13 12 11 10 10 9 7 6 6 7 7 7 7 6 6 6 5 8 10 10 9 8 8 7 7 9 11 13 14 14 16 17 17 16 17 19 19 20 21 20 19 18 18 18 19 20 20 21 21 20 21 21 21 21 20 19 19 19 19 20
14 14 15 16 15 14 12 9 8 9 8 7 8 9 8 7 7 6 5 6 11 18 18 16 15 12 11 11 10 9 9 8 7 7 7 6 7 7 6 6 6 6 7 8 7 9 9 8 6 5 5 6 8 10 11 13 16 17 17 17 19 19 20 22 22 21 19 18 19 19 20 21 21 21 21 21 22 22 22 22 21 20 20 20 20
15 14 14 15 14 12 10 8 8 8 8 8 6 8 8 6 6 7 6 8 14 19 18 16 15 13 10 9 9 9 8 8 7 6 5 4 5 5 5 4 5 6 6 5 5 7 8 9 9 8 6 5 4 4 5 10 14 15 16 19 21 20 20 22 23 22 21 19 19 20 20 21 21 21 21 22 22 22 22 22 22 21 21 21 21
15 15 15 14 12 10 9 9 8 7 7 7 6 6 9 8 7 8 8 10 16 19 18 13 11 12 12 9 7 6 6 7 7 6 6 5 5 5 5 4 4 5 5 3 4 6 8 8 10 11 10 10 8 6 6 8 10 12 14 18 21 21 20 21 23 23 22 20 20 20 21 22 21 21 22 22 22 22 22 22 22 21 21 22 22
15 14 15 14 12 11 10 9 9 8 7 7 6 6 9 9 8 9 9 12 15 17 14 8 8 14 14 7 3 3 3 3 5 5 5 6 6 6 6 5 4 5 4 2 3 5 6 7 9 10 10 12 13 11 10 9 9 10 13 17 21 22 21 22 22 23 22 20 20 21 21 21 22 22 22 23 23 22 22 22 21 21 22 22 22
13 12 13 12 12 10 9 9 10 10 9 8 8 7 8 8 9 10 10 12 14 13 9 6 10 14 8 3 4 4 1 3 5 4 3 5 5 7 7 5 5 5 4 2 2 3 3 4 7 10 10 12 14 13 13 13 12 12 14 19 22 22 22 23 23 22 21 20 20 21 21 21 22 22 23 23 23 23 22 22 22 22 22 22 22
12 11 11 10 10 8 7 8 8 9 8 7 8 9 9 8 8 9 10 11 13 12 8 6 11 14 7 3 5 2 2 6 7 4 4 4 3 5 6 4 6 6 3 0 2 3 4 3 3 7 9 10 14 14 13 14 14 13 15 20 22 21 22 24 25 23 21 21 21 22 22 22 23 23 23 24 23 23 23 23 23 23 22 22 22
13 12 10 9 9 9 8 6 6 8 8 7 9 10 10 9 9 9 8 10 13 14 11 8 10 12 7 4 4 2 6 10 6 2 3 4 3 4 3 4 7 6 3 1 4 5 5 3 3 4 6 8 12 13 12 13 13 13 16 21 21 21 22 25 26 24 22 22 23 23 23 23 24 24 23 23 24 24 23 23 23 23 23 23 23
13 12 10 8 8 10 9 5 6 9 8 9 11 10 10 11 10 9 9 10 12 13 13 11 10 8 5 4 5 5 9 10 6 3 3 3 5 5 3 4 6 5 3 2 4 5 5 3 1 2 3 6 10 12 12 12 13 15 19 21 20 21 23 25 26 26 25 24 23 23 23 23 24 23 23 23 24 24 24 24 24 24 24 24 24
12 11 9 7 7 11 9 5 8 11 10 12 12 11 11 12 11 11 11 11 10 11 13 11 10 9 8 7 7 7 9 8 6 6 4 3 4 5 5 5 4 5 5 4 2 4 6 5 4 3 4 6 10 12 12 12 14 17 20 21 20 22 24 25 27 28 28 27 25 24 24 24 24 23 23 23 24 24 25 25 25 25 25 26 27
11 10 9 8 9 12 10 8 10 13 13 13 13 12 12 11 11 11 11 12 13 14 14 10 10 11 9 9 9 10 10 9 7 6 4 3 3 4 7 7 5 6 6 4 1 3 5 5 4 2 3 6 9 10 11 13 17 19 21 22 22 23 23 25 28 29 29 28 28 27 25 26 25 23 23 23 24 25 25 26 26 27 28 28 30
14 11 10 10 11 13 12 11 12 13 13 13 12 12 13 12 12 12 12 14 15 15 14 12 12 11 10 10 10 10 8 8 8 8 7 5 3 2 7 10 7 6 8 6 2 1 3 3 2 2 3 5 7 9 11 15 17 19 22 23 23 23 23 26 29 30 29 29 29 29 28 28 26 23 23 23 24 25 25 26 27 28 29 29 29
16 12 11 12 13 14 13 11 11 12 12 12 12 12 13 13 13 13 13 14 14 14 14 13 13 13 12 12 13 12 11 10 10 10 9 6 4 1 3 7 8 6 6 7 5 2 3 3 4 5 4 3 6 9 14 16 17 20 23 23 22 22 24 27 30 30 30 29 29 30 29 29 26 23 22 22 23 24 26 27 28 29 29 29 28
16 14 14 14 14 14 13 12 11 11 11 11 12 13 14 14 15 15 15 14 14 14 14 14 13 14 15 14 15 14 14 12 11 11 11 9 7 4 3 1 6 7 6 6 6 4 6 5 6 5 2 4 8 12 16 17 19 22 23 23 23 23 25 29 30 30 30 30 30 30 29 28 25 22 21 22 24 25 26 28 29 30 30 30 28
17 16 15 14 14 14 14 13 13 12 12 12 13 14 15 16 16 16 16 15 15 15 15 15 14 14 15 14 14 14 14 12 11 11 11 10 10 6 4 4 2 3 6 7 6 2 3 3 6 5 5 9 12 15 17 19 21 23 23 23 23 25 27 29 30 30 31 31 30 28 28 27 25 23 24 26 26 26 27 28 30 32 32 31 31
19 16 14 13 14 14 14 14 14 14 14 14 14 15 15 16 16 17 17 16 16 16 16 16 15 15 14 14 14 14 13 12 11 12 12 11 13 10 5 4 6 5 2 5 5 1 5 6 8 7 9 13 14 16 18 21 22 22 22 23 24 26 28 29 29 31 31 30 28 28 28 28 26 26 27 28 27 25 26 27 30 32 32 32 32
19 16 14 15 15 14 13 14 15 14 14 15 15 15 15 16 16 16 17 16 17 17 17 16 15 15 14 15 15 14 13 13 13 14 14 14 14 13 9 5 4 7 7 2 2 5 9 10 8 7 12 15 16 17 20 21 22 22 23 23 25 27 28 29 31 32 31 29 29 30 29 28 27 26 28 27 23 23 25 27 30 33 33 33 33
17 15 15 16 16 15 14 14 15 15 15 15 16 15 15 16 16 16 17 16 16 17 17 16 15 14 14 14 14 14 13 13 15 15 14 14 14 13 13 11 6 3 5 5 3 4 10 14 11 10 15 17 18 19 20 22 22 22 23 24 26 27 28 31 33 31 30 30 31 31 29 28 26 26 28 24 20 23 27 29 33 35 35 35 35
17 16 17 18 17 16 14 15 16 16 16 15 15 15 15 16 17 17 17 16 16 17 16 16 15 15 14 13 14 15 13 13 14 14 13 13 13 12 13 13 10 5 2 3 3 3 8 14 12 13 18 19 20 20 20 22 23 23 24 24 25 27 30 33 32 32 32 32 32 30 29 28 27 27 27 22 21 26 29 30 34 36 37 38 37
19 20 19 18 16 14 14 15 16 16 15 15 15 16 17 18 18 17 17 17 17 18 16 16 15 14 14 15 15 15 13 13 12 12 12 13 12 12 10 10 11 8 4 2 2 3 9 14 13 15 20 21 21 21 22 23 23 23 24 24 25 29 32 32 32 33 34 33 32 30 29 28 27 29 27 23 24 28 30 31 34 38 40 40 39
22 23 20 17 16 14 15 17 17 16 16 16 17 17 18 18 18 17 17 16 17 17 15 15 15 14 16 16 15 14 13 12 11 11 11 12 11 11 9 8 9 8 6 3 1 3 9 15 16 17 21 22 22 22 23 23 23 24 23 24 27 31 32 32 33 35 34 33 32 30 30 29 28 30 28 24 25 28 31 34 36 39 43 43 41
23 22 19 18 17 17 18 18 18 17 17 17 18 18 17 18 17 17 16 15 16 16 16 15 15 14 15 15 13 12 11 10 10 9 10 10 9 8 8 8 7 6 6 5 3 7 11 13 16 19 21 22 23 23 23 23 24 24 24 26 30 32 32 33 34 35 34 33 32 31 31 29 29 32 29 26 26 29 32 36 38 41 44 44 41
22 21 19 18 18 18 19 19 19 19 18 18 18 17 18 18 16 15 15 15 16 17 16 14 13 12 13 14 13 12 11 9 9 9 9 10 8 7 7 7 6 6 6 6 6 10 14 15 17 20 22 23 24 24 24 25 25 24 26 29 30 31 32 33 34 35 33 33 33 32 30 28 29 32 30 28 27 29 34 37 39 41 43 43 38
22 21 20 19 18 19 20 19 19 19 18 18 18 18 18 18 17 15 15 15 17 17 15 14 12 11 12 12 13 12 9 7 7 8 9 9 9 7 6 5 6 7 7 8 8 9 14 18 20 21 23 24 25 24 24 25 25 26 29 30 30 31 34 34 33 34 34 33 33 31 28 26 28 30 31 30 28 30 35 38 38 40 40 39 35
22 20 20 21 19 19 20 20 20 20 19 18 18 18 18 18 18 16 14 15 17 17 16 15 13 12 11 12 12 11 9 7 7 7 8 7 8 7 5 4 4 6 6 7 9 10 14 19 21 22 24 25 24 24 24 24 25 28 30 29 30 33 35 34 32 33 34 34 33 31 28 27 29 30 31 30 28 30 36 37 37 39 38 36 34
22 21 21 21 20 20 21 21 20 20 20 19 18 18 18 19 18 16 15 16 16 15 15 14 13 11 11 12 11 9 8 8 7 6 7 6 6 5 4 3 3 5 6 6 8 11 13 17 20 21 23 23 23 23 23 23 26 28 28 28 31 34 36 34 33 34 35 35 34 33 31 31 32 33 33 31 30 32 36 37 37 38 37 36 34
23 23 23 22 21 22 22 21 21 21 21 20 19 19 19 18 17 16 16 15 14 14 13 13 12 11 11 11 10 8 7 7 5 4 5 5 4 4 3 3 3 5 6 6 7 10 12 15 18 20 21 22 22 22 22 24 28 28 27 28 32 35 36 36 34 35 37 36 36 35 34 34 34 35 34 31 30 33 36 37 37 37 37 36 36
25 25 25 23 22 23 23 22 22 22 21 21 20 19 19 18 16 16 15 15 15 14 13 13 12 11 10 10 9 8 7 6 5 3 3 5 4 2 2 3 4 5 6 8 8 9 11 14 16 19 22 23 23 22 23 25 27 28 27 28 32 36 37 36 35 36 37 37 37 36 36 36 36 35 33 29 29 33 37 37 36 37 37 38 38
27 27 26 24 24 24 23 23 23 22 22 21 20 20 20 18 17 16 16 16 16 15 14 13 12 11 10 10 9 8 7 5 3 1 2 4 4 1 2 4 5 7 9 10 10 10 12 14 16 18 20 22 23 23 24 25 26 27 27 27 30 35 39 38 35 34 35 36 37 37 36 36 36 36 32 29 31 35 37 37 36 36 37 39 40
28 28 26 26 25 24 23 23 23 22 22 22 21 21 21 19 18 18 17 17 17 16 14 13 12 11 10 9 8 7 6 5 2 1 2 3 2 1 3 5 6 8 9 10 11 12 13 15 17 18 19 22 24 24 25 27 25 26 28 26 27 33 38 40 38 33 33 35 37 37 37 36 37 37 34 32 34 36 37 37 36 36 38 40 42
28 27 26 27 26 25 25 24 23 22 23 23 22 23 22 20 19 19 17 17 16 16 15 14 12 11 10 9 7 5 4 4 3 3 4 4 3 3 4 5 6 8 10 11 12 13 13 15 16 18 19 22 25 24 25 26 26 27 30 28 28 32 35 37 39 36 32 34 36 37 37 37 37 38 37 35 36 38 37 36 36 37 39 43 45
28 27 27 27 27 27 26 26 25 25 24 24 24 23 21 20 20 19 18 17 17 16 16 15 13 12 11 9 6 3 2 4 5 4 3 3 3 3 4 5 7 9 11 13 15 15 15 15 16 18 19 22 25 25 25 27 28 29 31 30 30 32 32 29 33 37 35 34 35 36 37 37 37 38 37 36 37 38 37 36 37 38 40 45 47
29 29 29 28 28 28 28 28 28 27 27 26 24 20 19 20 20 19 18 17 17 16 15 15 14 13 11 9 6 4 2 3 5 4 1 1 2 3 3 3 5 9 12 14 16 16 16 16 17 19 19 22 25 26 26 28 29 30 32 31 30 31 29 23 23 31 36 37 34 34 36 38 38 37 36 36 38 38 37 37 38 38 41 46 47
30 29 29 30 29 29 30 30 29 28 28 26 21 18 20 21 19 18 18 17 17 16 15 14 14 13 12 9 7 5 2 3 4 3 2 1 2 4 4 3 4 8 10 12 15 16 16 16 18 20 21 22 24 27 28 29 30 31 32 32 30 29 29 25 23 27 37 39 34 31 33 37 38 36 36 37 38 38 38 39 38 38 42 47 46
31 30 30 31 29 29 31 31 29 29 26 21 18 19 21 21 18 18 18 17 16 16 15 14 13 13 13 11 9 7 4 3 3 2 3 3 5 7 6 3 4 7 8 10 12 12 13 14 16 19 20 21 24 27 30 31 32 32 30 30 30 29 29 29 28 32 38 38 33 30 31 35 37 35 36 38 39 39 40 39 37 39 44 47 44
32 30 31 31 30 29 31 31 29 27 22 19 19 21 20 20 19 19 17 16 15 15 14 14 13 14 14 13 11 8 6 5 5 5 5 5 7 7 4 2 5 7 7 8 8 8 10 11 14 17 20 22 25 27 29 31 31 30 28 28 29 29 29 31 33 35 36 37 35 29 25 32 38 35 36 40 40 40 40 37 37 42 45 46 43
32 31 31 31 30 29 30 30 27 24 20 20 22 22 21 20 20 19 17 17 16 14 14 14 14 15 17 15 11 9 8 9 9 8 7 7 8 6 3 2 4 5 6 6 7 10 12 12 13 17 20 22 25 26 25 25 24 25 26 27 27 28 29 31 33 34 34 37 38 27 20 30 38 34 35 41 41 39 38 36 39 45 46 45 44
31 31 30 30 30 29 29 28 26 22 21 23 23 22 22 21 22 20 16 16 18 16 14 14 13 14 16 14 10 9 10 12 11 9 8 8 8 6 5 4 3 3 4 5 8 11 11 11 13 17 19 20 21 21 21 21 22 25 27 26 27 29 28 27 28 31 34 36 37 29 22 29 37 34 35 41 41 36 35 37 42 47 48 45 45
30 30 30 29 28 28 28 26 25 23 23 24 24 23 23 21 23 22 16 16 18 17 14 14 14 15 15 14 11 10 11 12 11 9 9 9 8 7 7 5 2 1 2 5 7 8 7 9 12 13 15 16 17 18 21 21 24 28 27 25 27 29 27 21 20 27 33 34 35 33 26 29 35 35 35 38 38 33 33 39 46 47 47 47 46
32 31 31 29 28 28 26 25 24 24 24 24 23 24 23 22 23 23 19 15 15 14 13 14 15 14 13 14 14 14 13 12 11 11 10 10 9 7 5 3 3 3 3 4 5 5 6 7 9 11 13 14 16 19 21 23 26 27 25 26 29 29 26 22 21 25 29 31 36 37 30 29 36 37 35 32 31 32 35 41 46 47 47 47 47
31 30 30 29 29 28 26 24 24 24 24 24 23 24 24 23 24 25 22 17 14 12 12 13 13 13 14 15 15 16 15 14 13 12 11 10 9 7 5 3 4 4 3 4 5 7 8 10 12 14 15 15 17 20 22 24 26 26 25 27 30 30 27 26 26 23 17 22 37 41 31 29 35 37 34 25 17 24 39 44 43 45 47 48 47
Wind_Direction
196 203 200 198 201 209 220 218 221 225 223 231 228 217 210 210 242 278 264 253 241 216 282 202 204 187 127 137 160 167 172 161 136 117 103 91 89 82 73 68 63 59 46 35 30 31 34 37 41 31 22 27 30 15 2 3 3 2 5 9 10 9 7 358 356 3 2 355 351 352 354 355 357 1 3 3 4 4 3 358 356 355 356 359 353
207 210 200 197 202 207 212 211 212 211 211 216 212 200 174 159 185 235 263 270 286 83 51 107 139 166 141 131 163 164 163 159 141 124 108 98 94 88 79 68 61 57 52 45 37 34 34 37 45 46 35 28 23 16 13 15 18 18 17 18 17 15 14 8 4 6 5 355 352 356 358 358 1 1 359 357 360 3 358 354 357 358 357 355 352
201 198 191 189 194 197 199 200 198 194 198 198 190 185 156 127 144 145 140 273 292 24 82 83 97 119 122 117 145 159 164 161 140 125 109 99 95 90 80 66 57 53 49 44 40 37 37 40 41 48 52 42 27 24 30 29 26 27 26 27 27 23 21 19 14 11 11 4 359 2 3 4 4 3 2 356 356 2 353 349 355 357 359 357 351
196 192 191 191 188 189 190 190 191 187 185 184 182 175 150 142 152 163 154 169 269 303 101 105 103 112 115 109 112 127 150 159 139 126 111 98 89 83 74 65 56 46 42 38 38 38 42 47 44 45 51 51 41 36 39 38 33 32 31 30 32 30 27 26 24 19 20 17 9 10 12 11 9 6 6 2 358 1 348 340 343 344 346 348 345
197 195 194 191 184 185 185 184 185 181 178 181 180 170 163 163 160 169 158 151 247 230 119 120 114 112 110 109 106 103 118 136 136 127 112 97 87 78 66 60 54 45 38 34 36 42 49 51 47 43 44 50 51 47 45 43 40 40 36 33 33 34 31 28 28 24 22 21 16 14 15 14 13 11 10 8 5 2 349 338 338 337 335 334 331
194 197 191 187 183 182 186 186 184 181 179 174 162 160 162 167 173 167 143 147 234 194 125 121 122 122 114 113 111 104 110 120 126 124 111 98 88 81 69 58 52 47 40 35 39 47 52 50 45 40 39 43 50 52 50 45 41 40 39 35 32 31 31 28 27 25 21 20 17 13 14 15 15 12 11 10 9 7 359 351 347 342 337 333 329
191 194 189 189 185 177 179 180 179 180 175 152 125 134 150 166 176 161 136 143 205 164 136 126 122 123 120 117 114 111 111 112 117 118 113 108 97 88 80 67 55 48 41 38 39 46 51 48 43 37 34 36 42 48 50 47 41 37 35 34 30 26 27 26 23 23 19 18 17 12 12 13 12 11 10 8 7 6 3 359 356 352 347 342 335
188 190 189 191 185 174 171 167 162 162 152 132 119 119 153 157 148 157 169 108 139 144 142 138 130 124 124 123 121 120 117 112 111 112 113 115 106 99 94 81 66 50 40 43 49 51 50 46 41 35 30 28 32 39 44 45 41 37 33 31 31 24 22 22 18 18 16 15 15 12 11 11 10 9 7 6 4 2 1 359 357 355 353 349 344
187 190 188 182 174 167 164 158 148 148 139 120 123 139 146 141 139 183 222 129 132 142 139 138 137 132 130 127 128 126 121 118 114 112 110 104 99 101 104 93 76 56 43 48 55 57 54 47 41 35 30 25 25 30 37 38 36 37 33 29 29 25 20 18 15 13 12 11 9 8 8 6 6 5 4 3 1 359 358 357 355 353 352 350 348
186 186 181 174 166 161 159 152 142 141 145 137 150 180 185 174 171 198 218 136 142 150 141 138 136 132 132 130 133 130 123 124 120 114 102 93 93 89 93 90 75 56 48 52 52 54 55 50 45 37 28 23 20 22 29 28 27 31 32 28 26 24 19 16 13 9 7 7 5 4 3 0 1 1 1 359 357 357 356 354 352 350 348 347 345
184 182 177 170 162 158 150 144 144 150 167 164 162 179 189 185 183 200 195 136 152 158 148 141 134 132 136 132 132 130 124 123 120 123 120 113 106 91 82 79 72 60 52 49 46 44 47 50 46 36 29 26 19 14 15 11 11 20 27 25 22 20 18 14 11 7 4 2 2 1 359 356 357 358 358 355 354 353 352 351 349 347 345 344 343
179 179 173 166 160 154 144 146 162 170 178 176 159 162 174 177 175 188 175 142 160 163 156 147 133 124 130 134 133 127 124 124 123 135 142 136 128 111 96 83 73 67 60 53 43 33 34 45 43 25 27 31 21 13 7 356 355 8 17 15 15 13 11 10 8 4 1 359 359 360 357 355 356 356 355 352 351 349 348 348 346 345 343 341 340
172 173 166 160 157 152 150 159 172 178 191 199 179 166 178 180 176 190 182 158 160 161 161 157 136 120 122 128 128 127 130 134 131 135 142 141 139 124 110 102 84 75 74 64 45 18 13 33 38 28 27 27 24 23 8 352 350 359 5 5 7 7 3 3 4 0 358 357 357 357 354 355 355 354 353 351 349 347 346 345 343 342 340 338 337
165 169 164 157 156 160 170 176 179 184 196 204 197 180 180 174 172 188 188 169 164 163 164 162 146 141 140 127 119 126 135 143 139 131 131 133 129 120 115 118 110 100 97 63 23 357 350 6 19 22 27 31 34 37 20 359 351 350 351 355 359 359 356 357 358 357 356 355 354 353 351 351 352 350 350 349 348 346 345 343 341 340 337 335 334
158 160 158 153 156 168 179 185 191 187 178 181 187 189 184 178 180 188 178 161 162 167 170 179 171 153 142 134 149 140 139 170 155 139 148 157 154 143 129 125 130 116 100 64 23 8 353 352 356 360 13 23 23 24 19 10 359 346 342 347 350 351 351 351 353 353 353 353 351 349 348 348 348 347 347 347 347 346 344 343 341 339 336 334 332
168 171 171 169 171 174 174 181 190 189 184 184 189 192 188 183 188 195 185 166 162 167 179 198 180 161 145 151 169 148 181 207 166 151 179 182 178 174 159 141 135 121 100 84 53 26 355 349 355 349 355 8 7 7 10 8 2 352 345 344 345 346 346 348 350 350 350 350 349 347 346 346 345 344 345 346 346 346 344 342 340 337 335 334 332
173 188 197 200 199 192 179 178 188 194 190 182 181 181 179 178 180 188 197 189 176 169 170 180 179 180 183 159 156 171 206 172 156 158 196 187 163 175 184 176 144 124 105 30 326 346 334 310 332 342 342 353 356 356 358 358 357 353 345 342 342 343 345 347 350 348 347 347 346 345 345 343 343 342 343 344 344 344 343 341 340 337 336 334 332
170 184 192 199 203 200 191 189 199 200 193 175 172 173 177 185 186 186 193 195 186 177 170 169 172 183 195 166 154 172 162 157 151 154 204 201 159 153 178 170 155 144 123 320 314 337 345 305 270 330 335 338 349 353 353 353 351 345 339 338 339 341 344 346 347 345 344 343 342 342 342 341 340 339 340 342 341 340 340 339 338 336 334 333 331
167 174 179 186 191 186 184 194 191 187 187 179 176 174 174 179 182 182 175 174 183 179 171 173 172 170 176 157 129 138 159 162 165 153 160 204 200 191 189 155 156 163 160 209 300 342 14 12 338 8 2 346 348 353 354 351 345 338 336 338 339 340 342 342 342 343 343 341 338 337 338 338 336 335 336 338 338 337 337 335 334 333 331 329 328
164 166 172 177 172 165 166 176 174 176 181 179 180 180 174 170 169 172 167 163 169 164 158 166 171 158 151 147 129 130 145 146 165 172 148 176 206 206 199 191 187 177 168 196 270 11 39 51 54 45 21 4 354 351 353 350 340 335 337 339 339 337 337 338 340 342 343 341 337 334 333 333 332 333 334 334 334 334 334 333 331 330 328 326 324
162 160 165 164 157 159 162 167 171 179 185 181 183 185 181 173 166 165 158 151 151 150 143 139 145 148 146 148 137 128 120 103 116 140 111 124 179 202 200 204 221 204 188 203 214 46 41 41 45 38 1 356 356 351 349 345 337 335 338 339 336 334 334 337 340 341 341 340 338 335 332 330 329 328 331 331 332 332 331 330 329 327 325 324 322
158 153 158 161 157 160 165 166 170 180 185 185 187 187 186 181 172 168 157 146 144 143 137 125 123 130 137 141 130 118 111 84 72 82 81 91 128 193 202 200 215 219 211 217 217 52 11 3 348 305 303 339 350 347 345 343 338 336 338 337 334 333 334 338 340 340 340 339 338 336 334 334 331 326 328 329 330 330 330 329 328 326 324 322 320
159 155 155 159 162 167 169 165 168 176 182 187 187 180 177 175 169 165 157 149 146 143 136 127 121 118 118 120 112 102 97 82 68 74 79 80 96 95 223 217 233 251 234 227 228 264 298 310 313 294 286 329 342 342 347 346 340 337 336 335 335 335 337 339 340 340 340 339 338 337 338 338 335 328 327 330 330 331 330 330 328 325 323 320 317
158 156 155 157 159 165 171 166 161 164 168 170 170 165 161 160 160 159 155 149 148 146 137 131 127 120 113 110 108 102 94 90 83 82 80 80 96 96 64 189 241 261 263 235 225 263 285 297 322 314 304 4 355 351 351 346 339 337 335 336 337 338 339 339 340 341 342 341 340 340 339 341 339 334 334 335 334 333 333 332 330 328 325 321 316
157 150 154 164 162 161 166 164 157 155 156 154 154 155 154 153 152 150 148 144 143 143 135 130 127 121 117 113 111 106 97 95 93 87 84 79 75 66 46 59 94 254 259 232 216 265 326 354 14 28 35 15 0 352 349 341 337 337 337 338 339 338 338 339 341 342 342 342 341 341 340 341 341 340 341 341 339 339 340 340 338 334 328 324 319
166 157 154 165 168 164 163 161 158 155 155 154 152 153 153 150 148 145 142 140 139 137 131 127 124 121 120 116 110 106 100 98 95 86 80 76 66 52 33 38 53 42 344 221 201 79 47 41 38 37 11 357 353 347 342 338 336 337 339 339 337 338 338 340 342 342 342 342 341 341 341 341 341 340 340 341 342 346 349 347 345 339 331 325 320
172 168 162 165 168 167 165 161 160 158 156 156 154 153 152 148 146 142 139 139 138 133 129 127 123 120 120 116 110 107 103 99 95 86 78 75 69 61 60 63 45 30 27 38 99 59 34 15 12 7 351 345 346 344 338 336 337 338 339 338 337 338 339 341 342 340 341 342 341 340 340 340 339 338 338 340 342 348 351 351 350 346 337 328 321
167 168 170 175 172 166 164 163 163 159 156 156 154 152 151 146 143 139 136 140 138 131 128 124 119 118 118 117 111 105 103 104 98 91 84 78 72 65 64 71 76 35 9 8 13 39 19 8 2 349 346 345 344 342 339 338 339 338 338 338 338 339 341 341 340 340 342 342 341 340 340 339 338 337 336 335 337 342 347 350 349 346 340 333 325
168 168 169 172 170 164 161 161 163 161 157 157 154 151 149 143 140 137 136 139 137 131 128 122 118 119 117 114 110 102 101 106 102 95 89 83 76 69 62 64 73 84 67 359 328 313 352 1 359 340 341 346 344 342 342 340 339 339 339 340 339 339 339 339 340 341 342 341 341 340 339 339 337 335 332 326 327 335 341 344 344 341 339 337 330
171 169 166 165 164 162 160 158 160 160 159 158 153 150 149 144 140 137 136 139 135 130 130 127 124 123 117 109 104 100 97 99 101 98 92 87 81 74 63 57 60 71 87 34 322 310 335 344 347 340 339 344 344 343 342 340 340 342 341 340 337 336 337 340 342 341 340 341 341 341 339 338 335 332 326 319 323 332 337 339 340 340 340 338 332
172 171 170 168 164 160 158 158 159 159 158 155 153 153 152 147 143 140 140 142 137 132 132 129 123 119 114 106 100 97 95 94 96 96 90 84 78 75 70 59 54 54 52 34 314 297 327 333 337 341 341 342 344 343 341 342 344 342 340 337 333 334 338 341 340 339 340 342 342 341 339 337 333 330 324 315 320 330 335 336 337 340 341 338 333
172 173 173 170 166 161 160 160 160 159 156 155 156 157 153 148 146 145 145 145 140 134 131 125 121 121 118 112 108 108 108 105 105 104 95 85 79 77 73 65 57 41 21 17 318 300 319 332 335 340 344 344 344 344 342 344 344 341 337 333 332 335 340 340 338 339 341 342 342 341 339 337 333 329 322 312 316 328 333 334 337 339 339 338 335
173 174 173 170 168 165 164 164 164 161 158 159 160 158 152 148 146 145 146 147 140 132 128 126 127 132 130 124 121 122 122 117 116 118 105 89 84 82 73 63 53 34 11 7 346 316 320 335 338 340 345 345 343 345 346 345 344 341 334 332 335 338 338 337 338 340 342 342 343 343 340 338 335 330 321 310 312 325 330 332 335 338 339 339 337
174 175 174 172 170 168 167 168 166 163 162 162 160 158 154 148 145 146 148 147 139 133 132 133 134 136 139 136 130 127 123 112 112 123 114 90 79 79 75 61 45 37 20 5 359 333 322 332 339 342 345 346 345 346 347 346 343 339 334 335 338 336 333 336 339 341 342 342 344 344 341 338 336 330 320 309 309 320 326 328 334 337 339 339 338
174 175 174 173 171 171 171 170 168 166 165 161 158 159 157 150 148 150 150 146 142 141 140 138 138 138 136 135 132 127 122 113 107 120 123 97 78 79 71 52 32 20 9 2 1 347 328 330 339 344 345 346 345 344 344 344 340 336 337 338 337 333 333 338 341 341 341 342 344 344 341 335 333 329 320 309 305 315 322 326 331 336 337 338 337
174 175 174 173 172 172 173 172 171 170 166 161 161 164 160 153 152 153 151 147 147 149 149 145 143 141 137 133 129 129 133 129 115 115 127 112 85 78 53 27 11 357 358 8 8 357 342 336 339 345 347 345 343 341 342 342 338 337 340 338 334 334 337 340 341 342 341 341 342 343 341 336 333 330 322 309 303 311 320 324 328 333 335 335 334
177 177 175 174 174 175 175 175 174 173 169 165 167 168 161 155 156 157 153 150 150 151 151 150 147 144 141 137 134 139 149 148 133 124 135 128 104 83 49 8 351 350 357 10 9 1 353 346 342 346 349 347 342 341 343 341 338 339 339 336 336 338 338 340 342 343 341 341 341 341 339 336 334 332 326 313 304 311 319 322 326 331 333 332 330
177 176 175 175 177 178 178 177 176 175 171 170 170 166 160 158 159 157 153 152 155 153 150 150 150 149 147 146 149 155 159 158 154 155 156 149 143 111 30 357 353 3 14 16 11 3 356 350 346 346 348 347 342 340 342 341 338 336 333 332 337 340 339 338 340 342 342 341 340 338 336 334 333 333 328 316 308 313 319 320 324 328 331 331 329
176 175 174 176 179 181 180 179 179 177 173 171 171 165 161 162 161 157 157 159 159 156 153 153 153 155 158 160 164 168 170 171 170 170 175 176 182 211 9 19 21 24 24 17 9 2 356 349 345 343 342 343 342 339 339 340 339 337 333 329 332 337 339 337 336 339 341 340 338 336 334 333 333 333 329 319 315 317 319 320 323 327 330 331 330
177 176 175 177 180 182 181 180 181 179 174 174 172 166 164 165 163 162 164 165 161 158 159 162 159 161 170 175 177 180 189 202 213 129 133 151 163 116 50 43 33 22 13 3 355 352 349 341 338 336 336 338 340 340 340 340 336 334 333 328 325 329 334 334 333 336 339 337 335 333 332 333 332 332 329 322 319 319 319 320 323 327 330 332 331
177 177 177 179 180 181 182 182 182 179 177 177 173 169 169 169 168 170 170 167 164 163 165 165 164 169 176 180 183 193 209 211 198 143 124 115 104 86 61 40 18 2 350 341 338 338 336 330 327 331 333 334 336 336 336 334 329 326 328 328 325 326 328 329 331 336 338 336 333 331 332 333 331 330 328 323 321 322 320 321 324 327 330 332 332
178 178 180 181 181 182 183 183 182 180 179 178 175 175 175 174 173 174 173 169 166 167 167 165 166 175 181 183 191 195 179 179 173 153 126 95 65 44 31 11 353 339 328 326 328 327 322 318 320 327 328 327 330 331 328 328 329 327 328 328 326 325 327 326 328 334 338 337 331 328 331 333 330 327 327 324 323 324 322 323 327 329 331 333 333
179 180 182 182 183 185 185 183 182 180 180 179 179 179 177 175 176 177 174 172 170 171 174 172 172 181 188 192 202 200 169 186 192 185 156 59 26 356 345 341 332 324 317 315 318 317 313 310 316 321 318 316 324 329 327 327 329 327 326 327 325 324 325 325 323 329 336 337 331 325 327 332 331 326 325 326 325 325 325 326 329 331 332 335 334
179 182 184 184 184 186 185 184 182 180 181 183 182 180 179 178 178 179 178 178 176 177 181 179 178 188 196 198 201 208 225 217 199 199 223 267 319 317 316 317 324 326 320 314 312 312 310 308 310 315 316 314 320 327 327 324 324 324 325 326 327 325 322 321 318 322 333 336 331 324 324 331 333 327 325 328 328 326 328 331 332 332 335 336 335
180 183 185 184 186 187 185 183 180 180 183 187 184 182 183 181 179 180 183 184 182 183 188 189 189 194 200 201 199 209 231 214 185 218 250 270 309 316 315 317 334 340 336 328 322 317 313 308 304 311 319 318 317 324 328 325 320 321 323 325 329 328 324 323 322 323 331 336 332 325 322 329 333 328 324 329 330 328 332 334 334 335 337 338 337
181 184 184 185 186 186 184 182 180 182 185 186 185 186 185 182 181 183 185 187 187 189 193 197 199 201 203 205 203 213 228 213 210 237 250 273 307 313 310 320 341 347 341 336 342 344 337 326 311 313 325 326 321 323 330 328 322 323 325 326 330 332 329 329 330 329 334 339 336 327 320 328 333 328 325 330 331 330 335 337 337 338 340 340 340
183 184 184 185 185 182 182 182 182 183 184 184 187 188 186 184 185 182 183 189 192 194 197 204 213 212 208 206 208 221 227 214 219 239 249 272 297 298 280 295 329 347 349 344 352 352 346 341 330 323 327 329 325 324 331 334 335 338 338 334 337 338 334 333 334 335 340 343 341 332 318 326 333 328 326 331 331 332 338 340 339 341 342 342 343
183 184 183 184 184 181 181 184 185 185 187 188 190 190 188 188 187 184 185 190 191 195 201 206 210 203 198 199 204 217 220 213 219 237 249 269 289 283 268 281 308 351 359 339 336 342 342 339 335 327 324 328 330 335 343 347 349 348 343 341 344 342 335 332 334 337 339 343 345 340 324 326 333 330 327 332 333 333 339 342 342 343 344 344 345
181 184 184 184 185 183 183 187 189 188 189 193 194 193 193 192 188 188 190 186 188 198 203 200 195 188 190 199 204 209 212 211 220 238 252 267 281 275 272 283 277 264 324 326 328 342 344 334 331 328 329 338 347 354 357 355 351 348 343 341 344 341 334 332 334 335 337 341 346 346 335 329 334 333 328 332 335 335 339 343 344 345 346 346 346
181 183 185 186 187 185 185 187 190 191 192 194 195 196 199 199 195 194 193 182 183 197 200 196 199 200 205 212 214 216 220 221 229 241 251 263 269 266 269 288 278 265 300 335 347 6 2 346 343 341 345 356 1 360 358 354 352 352 348 346 346 341 336 333 332 332 336 341 347 348 339 332 335 335 332 332 335 338 341 343 345 346 347 347 348
181 183 186 188 187 185 186 188 191 194 193 193 195 197 201 205 203 200 197 186 181 194 199 200 208 214 215 217 218 221 222 224 229 236 245 257 261 257 257 282 296 296 322 338 343 352 346 342 343 342 348 2 3 357 354 352 354 358 358 354 352 346 340 335 334 335 333 339 348 349 342 334 335 337 337 335 332 337 342 343 345 347 348 348 349